Погода в Устинове

Россия / Тверская область     57°04′56″N   37°19′11″E
темп.,
°C
ветер,
м/с
пор.,
м/с
влажн.,
%
обл.,
%
осадки,
мм/ч
давл.,
гПа
погр.,
м
27 сентября, пн
пн2700:00+9ссв4109398 0.1 1017538
03:00+8с41095100 0.1 1020454
06:00+7с4119697 0.0 1021517
09:00+8с41092100 0.0 1022557
12:00+9с4986100 0.0 1024756
15:00+10с4985100 0.2 1024874
18:00+9с41088100 0.1 1025740
21:00+9ссв4989100 0.1 1026843
28 сентября, вт
вт2800:00+8ссв4990100 0.0 1027695
03:00+7всв3889100 0.3 1028622
06:00+6всв3882100 0.1 1030678
09:00+6всв3783100 0.1 1031591
12:00+10всв356345 0.0 10321042
15:00+11всв345421 0.0 10331179
18:00+7св227255 0.0 103421
21:00+5всв227975 0.0 103512
29 сентября, ср
ср2900:00+4ссв11835 0.0 103610
03:00+3ссз228812 0.0 103615
06:00+3ссз229086 0.0 103740
09:00+7с24757 0.0 1037239
12:00+11ссв236689 0.0 10361012
15:00+10ссв2370100 0.0 1036497
18:00+9ссв1271100 0.0 103520
21:00+9св0174100 0.0 103510
30 сентября, чт
чт3000:00+8с1177100 0.0 103615
03:00+8сз2282100 0.0 103646
06:00+7сз2284100 0.0 103664
09:00+9сз1379100 0.0 1036169
12:00+12сз126764 0.0 1036583
15:00+13сз116391 0.0 10351077
18:00+11сз1168100 0.0 103511
21:00+10зсз227539 0.0 103560
1 октября, пт
пт100:00+7сз11905 0.0 103612
03:00+6сз119157 0.0 103610
06:00+8з1184100 0.0 103614
09:00+10зюз12760 0.0 1036287
12:00+12юз23580 0.0 1035917
15:00+13юз235523 0.0 10341266
18:00+9юз22735 0.0 103411
21:00+7юз22805 0.0 103418